Total_Precipitation_Accumulation
0.11 0.02 0.01 0.00 0.00 0.00 0.00 0.00 0.00 0.00 0.00 0.00 0.00 0.00 0.00 0.00 0.01 0.00 0.01 0.00 0.00 0.00 0.00 0.00 0.00 0.00 0.00 0.00 0.00 0.00 0.00 0.00 0.00 0.01 0.01 0.01 0.01 0.01 0.02 0.02 0.01 0.01 0.00 0.00 0.00 0.00 0.01 0.00 0.01 0.01 0.01 0.02 0.02 0.01 0.02 0.01 0.01 0.02 0.01 0.01 0.03 0.03 0.02 0.02 0.07 0.02 0.00 0.00 0.01 0.01 0.01 0.01 0.01 0.00 0.01 0.02 0.01 0.02 0.00 0.00 0.00 0.00 0.00 0.00 0.02
0.02 0.04 0.01 0.00 0.01 0.00 0.00 0.00 0.00 0.00 0.00 0.00 0.01 0.01 0.01 0.00 0.00 0.00 0.00 0.00 0.00 0.00 0.00 0.00 0.00 0.00 0.00 0.00 0.00 0.00 0.00 0.00 0.00 0.00 0.00 0.00 0.01 0.00 0.01 0.00 0.01 0.00 0.00 0.00 0.00 0.00 0.00 0.01 0.01 0.02 0.01 0.03 0.02 0.02 0.04 0.01 0.02 0.02 0.01 0.01 0.02 0.03 0.02 0.04 0.02 0.04 0.01 0.01 0.00 0.02 0.02 0.02 0.02 0.01 0.02 0.02 0.03 0.02 0.01 0.00 0.02 0.01 0.01 0.00 0.02
0.17 0.12 0.03 0.02 0.00 0.02 0.00 0.00 0.00 0.00 0.00 0.00 0.01 0.01 0.00 0.01 0.00 0.00 0.00 0.00 0.00 0.00 0.00 0.00 0.00 0.00 0.00 0.00 0.00 0.00 0.01 0.01 0.01 0.00 0.00 0.00 0.00 0.00 0.00 0.00 0.00 0.00 0.00 0.00 0.00 0.00 0.00 0.00 0.01 0.01 0.01 0.02 0.01 0.01 0.00 0.00 0.01 0.01 0.01 0.02 0.02 0.02 0.05 0.03 0.05 0.06 0.05 0.02 0.01 0.01 0.01 0.02 0.01 0.03 0.01 0.01 0.01 0.01 0.03 0.02 0.01 0.02 0.00 0.00 0.01
0.70 0.45 0.55 0.32 0.02 0.01 0.05 0.03 0.00 0.00 0.00 0.03 0.03 0.10 0.04 0.01 0.01 0.00 0.00 0.00 0.00 0.00 0.00 0.00 0.00 0.00 0.01 0.02 0.03 0.03 0.02 0.02 0.02 0.00 0.00 0.00 0.00 0.00 0.00 0.00 0.00 0.00 0.00 0.00 0.00 0.00 0.00 0.00 0.00 0.00 0.00 0.01 0.01 0.01 0.01 0.02 0.03 0.01 0.01 0.02 0.02 0.01 0.02 0.03 0.03 0.02 0.06 0.09 0.03 0.02 0.00 0.01 0.01 0.01 0.01 0.01 0.01 0.02 0.02 0.02 0.00 0.00 0.00 0.01 0.01
0.97 0.49 0.51 0.61 0.50 0.05 0.08 0.07 0.02 0.01 0.03 0.08 0.05 0.05 0.04 0.05 0.03 0.01 0.00 0.01 0.03 0.06 0.04 0.04 0.08 0.11 0.12 0.09 0.07 0.06 0.04 0.02 0.00 0.00 0.00 0.00 0.00 0.00 0.00 0.00 0.00 0.00 0.00 0.00 0.00 0.00 0.00 0.00 0.00 0.00 0.00 0.00 0.01 0.01 0.01 0.02 0.01 0.01 0.01 0.01 0.01 0.04 0.07 0.02 0.02 0.08 0.07 0.13 0.06 0.03 0.02 0.01 0.01 0.01 0.01 0.03 0.02 0.01 0.01 0.01 0.01 0.01 0.00 0.01 0.02
1.23 1.21 0.89 0.42 0.68 0.39 0.20 0.14 0.07 0.14 0.08 0.03 0.06 0.02 0.01 0.00 0.00 0.01 0.02 0.05 0.06 0.07 0.10 0.16 0.19 0.18 0.14 0.11 0.08 0.06 0.02 0.00 0.00 0.00 0.00 0.00 0.00 0.00 0.00 0.00 0.00 0.00 0.00 0.00 0.00 0.00 0.00 0.00 0.00 0.00 0.00 0.00 0.00 0.00 0.01 0.01 0.02 0.01 0.01 0.01 0.06 0.21 0.11 0.10 0.17 0.29 0.10 0.07 0.18 0.11 0.04 0.04 0.03 0.01 0.01 0.02 0.04 0.04 0.01 0.01 0.01 0.01 0.02 0.02 0.02
0.80 0.79 0.34 0.30 0.34 0.68 0.55 0.57 0.40 0.25 0.07 0.07 0.16 0.22 0.12 0.01 0.02 0.03 0.04 0.11 0.22 0.20 0.24 0.23 0.20 0.17 0.13 0.10 0.05 0.01 0.00 0.00 0.00 0.00 0.00 0.00 0.00 0.00 0.00 0.00 0.00 0.00 0.00 0.00 0.00 0.00 0.00 0.01 0.00 0.00 0.00 0.00 0.00 0.01 0.02 0.02 0.01 0.02 0.03 0.02 0.03 0.13 0.08 0.04 0.03 0.04 0.15 0.12 0.06 0.10 0.06 0.03 0.02 0.06 0.05 0.02 0.04 0.02 0.04 0.05 0.08 0.03 0.02 0.04 0.03
0.43 0.45 0.26 0.30 0.20 0.25 0.37 0.72 0.75 0.37 0.34 0.20 0.21 0.13 0.23 0.14 0.12 0.15 0.29 0.30 0.29 0.31 0.28 0.26 0.22 0.15 0.07 0.02 0.00 0.01 0.00 0.00 0.00 0.00 0.00 0.00 0.00 0.00 0.00 0.00 0.00 0.00 0.01 0.01 0.00 0.00 0.00 0.00 0.01 0.00 0.00 0.01 0.01 0.01 0.02 0.01 0.01 0.01 0.01 0.01 0.01 0.02 0.07 0.04 0.03 0.04 0.03 0.03 0.03 0.09 0.05 0.05 0.03 0.02 0.02 0.02 0.06 0.05 0.05 0.07 0.06 0.05 0.05 0.08 0.17
1.09 1.09 1.00 0.55 0.44 0.41 0.34 0.58 0.99 0.62 0.30 0.53 0.36 0.21 0.36 0.30 0.35 0.37 0.26 0.38 0.41 0.33 0.22 0.14 0.07 0.04 0.02 0.01 0.00 0.00 0.00 0.00 0.00 0.00 0.00 0.00 0.00 0.00 0.00 0.00 0.00 0.00 0.02 0.03 0.01 0.01 0.00 0.00 0.01 0.02 0.02 0.01 0.02 0.02 0.01 0.01 0.01 0.00 0.03 0.01 0.05 0.05 0.02 0.08 0.03 0.02 0.07 0.04 0.03 0.07 0.06 0.05 0.04 0.03 0.04 0.07 0.05 0.06 0.05 0.04 0.04 0.03 0.03 0.04 0.05
1.40 0.94 0.68 0.81 0.72 0.72 0.59 0.84 0.90 0.86 0.56 1.51 1.92 0.61 0.60 0.70 0.68 0.54 0.37 0.35 0.25 0.16 0.11 0.07 0.05 0.03 0.01 0.01 0.01 0.00 0.00 0.00 0.00 0.00 0.00 0.00 0.00 0.00 0.00 0.00 0.00 0.00 0.00 0.00 0.01 0.00 0.00 0.02 0.20 0.09 0.08 0.06 0.06 0.04 0.02 0.03 0.08 0.10 0.03 0.03 0.02 0.02 0.02 0.02 0.02 0.02 0.03 0.04 0.07 0.06 0.09 0.16 0.04 0.03 0.04 0.03 0.02 0.03 0.04 0.07 0.09 0.07 0.03 0.10 0.03
1.65 1.30 1.33 2.41 1.52 1.27 1.33 0.78 0.65 0.60 1.31 1.29 1.31 1.47 0.85 0.39 0.29 0.30 0.26 0.17 0.13 0.13 0.11 0.10 0.07 0.04 0.02 0.01 0.01 0.00 0.00 0.00 0.00 0.00 0.00 0.00 0.00 0.00 0.00 0.00 0.00 0.00 0.01 0.00 0.01 0.00 0.00 0.00 0.01 0.02 0.02 0.05 0.09 0.04 0.05 0.05 0.03 0.03 0.03 0.02 0.01 0.01 0.01 0.02 0.02 0.02 0.03 0.03 0.06 0.04 0.04 0.07 0.04 0.02 0.02 0.03 0.03 0.08 0.08 0.06 0.09 0.08 0.10 0.13 0.10
2.14 1.94 2.26 2.85 2.57 1.75 1.36 1.53 1.17 0.73 0.93 1.59 1.45 1.10 0.80 0.49 0.26 0.14 0.10 0.10 0.11 0.10 0.12 0.12 0.09 0.06 0.04 0.02 0.01 0.00 0.00 0.00 0.00 0.00 0.00 0.00 0.00 0.00 0.00 0.00 0.00 0.00 0.00 0.00 0.00 0.01 0.01 0.04 0.10 0.17 0.16 0.14 0.13 0.08 0.06 0.03 0.02 0.01 0.01 0.01 0.03 0.01 0.00 0.00 0.01 0.02 0.02 0.04 0.04 0.07 0.04 0.05 0.04 0.04 0.05 0.07 0.07 0.07 0.05 0.10 0.06 0.08 0.13 0.16 0.13
2.17 1.73 2.23 2.30 2.32 1.56 1.46 0.96 0.85 0.95 1.48 1.75 1.12 1.25 0.57 0.56 0.64 0.53 0.20 0.24 0.14 0.10 0.13 0.14 0.12 0.09 0.05 0.03 0.02 0.01 0.01 0.00 0.00 0.00 0.00 0.00 0.00 0.00 0.00 0.00 0.00 0.00 0.00 0.00 0.00 0.01 0.06 0.08 0.14 0.28 0.11 0.05 0.07 0.04 0.02 0.01 0.01 0.01 0.01 0.01 0.00 0.00 0.00 0.00 0.00 0.03 0.08 0.05 0.04 0.03 0.03 0.04 0.13 0.15 0.06 0.07 0.04 0.13 0.28 0.52 0.48 0.19 0.11 0.12 0.10
3.16 3.24 2.87 2.96 2.08 1.47 1.13 1.21 1.15 1.84 1.93 2.15 1.29 0.52 0.61 0.46 0.76 0.99 0.59 0.36 0.33 0.21 0.16 0.15 0.13 0.11 0.08 0.06 0.05 0.03 0.02 0.02 0.01 0.00 0.00 0.01 0.01 0.01 0.00 0.01 0.00 0.01 0.01 0.02 0.01 0.00 0.02 0.05 0.45 0.49 0.08 0.12 0.04 0.02 0.03 0.02 0.06 0.06 0.04 0.05 0.04 0.02 0.01 0.00 0.00 0.00 0.01 0.02 0.08 0.07 0.03 0.47 0.28 0.11 0.09 0.05 0.09 0.17 0.39 0.58 0.72 0.56 0.20 0.09 0.05
3.37 2.69 2.08 2.12 1.85 1.27 1.25 1.09 1.53 1.87 2.06 1.83 1.18 1.20 0.99 0.93 0.71 0.90 0.71 0.95 0.74 0.53 0.24 0.19 0.07 0.06 0.05 0.05 0.05 0.05 0.04 0.02 0.01 0.01 0.00 0.00 0.00 0.00 0.00 0.01 0.02 0.02 0.02 0.02 0.02 0.02 0.14 0.47 0.42 0.15 0.03 0.07 0.04 0.01 0.01 0.00 0.00 0.02 0.04 0.03 0.04 0.01 0.03 0.04 0.03 0.14 0.06 0.07 0.06 0.04 0.03 0.02 0.05 0.06 0.04 0.03 0.03 0.12 0.61 0.76 0.82 0.40 0.25 0.20 0.07
1.62 1.37 1.71 1.72 1.49 1.17 1.07 1.05 1.25 2.23 1.84 1.41 0.94 0.69 0.78 0.81 1.11 1.41 1.38 1.07 0.62 0.31 0.10 0.06 0.10 0.24 0.17 0.17 0.12 0.08 0.05 0.03 0.01 0.01 0.01 0.02 0.01 0.02 0.02 0.01 0.02 0.01 0.02 0.01 0.02 0.07 0.12 0.37 0.07 0.09 0.10 0.09 0.05 0.03 0.12 0.25 0.28 0.26 0.05 0.05 0.02 0.01 0.02 0.01 0.00 0.00 0.01 0.01 0.01 0.02 0.02 0.01 0.01 0.01 0.03 0.02 0.04 0.44 1.04 0.83 0.37 0.31 0.58 0.54 0.34
0.50 0.57 1.13 1.36 1.40 1.19 1.17 1.59 1.05 1.01 1.43 1.49 1.30 1.06 1.26 1.48 1.20 1.71 1.22 0.43 0.24 0.11 0.11 0.08 0.05 0.43 0.30 0.09 0.09 0.04 0.05 0.05 0.06 0.04 0.04 0.02 0.02 0.02 0.01 0.01 0.04 0.03 0.05 0.08 0.04 0.12 0.24 0.20 0.10 0.15 0.05 0.04 0.07 0.14 0.21 0.12 0.04 0.03 0.02 0.03 0.03 0.04 0.03 0.03 0.03 0.01 0.00 0.00 0.00 0.00 0.00 0.00 0.00 0.00 0.01 0.00 0.26 0.96 1.68 1.09 0.10 0.67 0.81 1.05 0.52
0.95 0.95 1.13 0.86 0.97 0.83 1.47 1.11 1.42 1.29 1.01 1.22 1.37 1.45 1.29 1.35 1.72 1.59 0.88 0.79 0.42 0.40 0.31 0.16 0.21 0.90 1.00 0.36 0.12 0.14 0.07 0.04 0.19 0.29 0.34 0.02 0.02 0.03 0.03 0.03 0.08 0.06 0.08 0.30 0.30 0.25 0.05 0.05 0.03 0.06 0.18 0.14 0.03 0.12 0.03 0.22 0.26 0.03 0.02 0.02 0.01 0.02 0.01 0.01 0.01 0.02 0.01 0.00 0.00 0.00 0.00 0.00 0.01 0.01 0.02 0.02 1.57 1.75 1.48 0.43 0.17 0.70 1.26 1.01 0.60
0.18 0.51 0.21 0.17 0.23 0.22 0.62 0.60 0.52 1.16 1.19 1.05 1.41 1.91 1.61 1.36 1.16 0.97 0.65 0.59 0.56 0.37 0.54 0.96 1.71 1.25 0.74 0.52 0.29 0.17 0.21 0.37 0.36 0.38 0.71 0.84 0.98 0.86 0.21 0.11 0.09 0.27 0.16 0.29 0.23 0.07 0.12 0.06 0.14 0.17 0.12 0.07 0.10 0.17 0.06 0.04 0.01 0.01 0.01 0.01 0.01 0.01 0.01 0.01 0.01 0.01 0.01 0.01 0.01 0.01 0.01 0.02 0.07 0.05 0.04 0.01 0.01 0.55 0.82 0.78 0.66 1.48 1.59 0.93 0.68
0.15 0.20 0.20 0.06 0.11 0.18 0.24 0.28 0.26 0.92 0.19 0.42 1.51 1.80 2.59 2.01 1.05 0.83 0.80 1.06 0.91 1.03 1.22 0.96 0.79 0.73 0.50 0.37 0.23 0.18 0.22 0.40 0.74 0.27 0.63 1.01 0.47 0.58 0.60 0.20 0.10 0.06 0.05 0.12 0.18 0.16 0.05 0.09 0.05 0.03 0.01 0.01 0.01 0.01 0.01 0.03 0.00 0.00 0.02 0.01 0.02 0.07 0.02 0.03 0.02 0.20 0.05 0.02 0.03 0.02 0.02 0.03 0.03 0.04 0.01 0.01 0.00 0.01 0.01 0.46 0.96 1.45 1.33 1.18 0.59
0.16 0.46 0.51 0.05 0.08 0.19 0.13 0.21 0.26 0.19 0.16 0.20 0.42 0.31 0.38 0.70 1.13 0.79 0.77 0.87 0.85 0.65 0.67 1.16 0.88 0.56 0.79 0.67 0.75 0.68 0.83 0.91 0.78 0.59 0.51 0.44 0.59 0.88 0.78 0.54 0.13 0.05 0.05 0.06 0.04 0.11 0.14 0.07 0.06 0.01 0.00 0.01 0.01 0.01 0.01 0.01 0.00 0.01 0.03 0.02 0.03 0.42 0.78 0.72 0.56 0.56 0.15 0.02 0.01 0.03 0.05 0.02 0.00 0.00 0.00 0.00 0.01 0.00 0.01 0.06 0.64 1.09 1.22 1.03 0.72
0.02 0.10 0.38 0.40 0.43 0.48 0.85 0.61 0.44 0.37 0.54 0.72 0.51 0.14 0.09 0.08 0.11 0.36 0.61 0.80 1.06 0.74 0.60 0.62 1.03 1.05 1.03 1.11 0.99 0.66 0.80 0.79 1.49 0.71 0.41 0.82 0.75 0.56 0.57 0.19 0.15 0.06 0.07 0.04 0.03 0.03 0.03 0.03 0.02 0.01 0.01 0.01 0.01 0.01 0.01 0.01 0.01 0.04 0.02 0.02 0.05 1.23 2.63 2.43 1.49 0.80 0.26 0.08 0.07 0.04 0.02 0.01 0.02 0.01 0.00 0.00 0.00 0.00 0.01 0.08 0.21 0.77 1.18 0.95 0.62
0.00 0.04 0.13 0.31 0.24 0.09 0.25 0.42 1.23 2.28 1.91 0.37 0.13 0.11 0.05 0.08 0.32 0.49 0.31 0.48 0.90 0.49 0.49 0.39 0.57 1.17 1.73 1.14 0.64 0.74 1.16 1.15 0.94 1.61 0.56 0.16 0.12 0.16 0.09 0.15 0.28 0.47 0.62 0.63 0.06 0.13 0.21 0.08 0.08 0.01 0.01 0.01 0.02 0.01 0.01 0.01 0.01 0.01 0.01 0.01 0.03 1.28 2.73 4.02 3.53 2.36 0.83 0.25 0.07 0.04 0.02 0.00 0.00 0.00 0.00 0.00 0.01 0.00 0.02 0.34 0.59 1.08 0.99 0.69 0.35
0.00 0.00 0.02 0.05 0.04 0.16 0.19 0.81 1.82 2.11 0.76 0.43 0.23 0.21 0.16 0.11 0.29 1.03 0.29 0.18 0.26 0.25 0.53 0.56 0.58 0.62 0.70 1.06 1.12 1.10 1.63 1.52 1.42 1.44 0.76 0.33 0.17 0.24 0.40 0.26 0.34 0.80 0.43 0.21 0.51 0.45 0.28 0.28 0.04 0.02 0.02 0.02 0.02 0.02 0.01 0.01 0.01 0.01 0.02 0.02 0.09 1.26 3.14 3.33 5.63 4.72 2.19 0.47 0.09 0.04 0.02 0.00 0.00 0.00 0.00 0.00 0.00 0.01 0.07 0.46 0.67 1.00 0.60 0.57 0.49
0.00 0.03 0.00 0.01 0.02 0.02 0.01 0.20 1.61 1.22 0.48 0.41 0.36 0.24 0.31 0.60 0.70 0.74 0.15 0.14 0.19 0.15 0.21 0.33 0.41 0.29 0.31 0.62 1.29 1.75 1.28 1.05 0.91 1.05 0.78 0.23 0.20 0.19 0.18 0.12 0.08 0.12 0.43 0.14 0.13 0.22 0.34 0.06 0.03 0.04 0.05 0.04 0.02 0.03 0.03 0.02 0.02 0.02 0.02 0.03 0.09 0.38 2.10 2.79 2.81 4.58 1.76 0.16 0.07 0.03 0.01 0.04 0.00 0.01 0.01 0.01 0.03 0.05 0.32 0.52 0.86 0.67 0.44 0.47 0.32
0.01 0.02 0.02 0.00 0.00 0.00 0.02 0.04 0.08 0.30 0.07 0.20 0.20 0.27 0.38 0.45 0.47 0.56 0.23 0.13 0.14 0.09 0.06 0.11 0.25 0.72 1.11 1.11 0.79 0.61 0.85 1.16 1.08 1.09 0.71 0.50 0.48 0.22 0.13 0.12 0.16 0.16 0.32 0.20 0.09 0.14 0.03 0.01 0.02 0.04 0.05 0.05 0.03 0.02 0.02 0.02 0.02 0.02 0.02 0.05 0.13 0.63 1.95 2.33 1.74 2.47 1.63 0.16 0.07 0.06 0.23 0.79 0.05 0.03 0.02 0.04 0.12 0.35 0.68 0.74 0.62 0.39 0.31 0.16 0.08
0.01 0.02 0.02 0.01 0.05 0.01 0.02 0.01 0.02 0.00 0.00 0.00 0.03 0.23 0.56 0.38 0.42 0.64 0.97 0.42 0.48 0.62 0.66 0.90 0.71 0.32 0.32 0.36 0.83 0.74 1.00 0.65 0.54 0.21 0.95 0.87 0.79 0.35 0.13 0.50 0.57 0.78 0.54 0.54 0.60 0.67 0.14 0.16 0.18 0.08 0.06 0.05 0.04 0.02 0.01 0.02 0.05 0.03 0.14 0.16 0.16 0.30 0.46 0.77 0.74 1.73 0.63 0.19 0.09 0.09 0.79 0.62 0.42 0.08 0.07 0.27 0.59 0.88 0.88 0.47 0.12 0.07 0.04 0.10 0.13
0.40 0.43 0.55 0.62 0.70 0.77 1.02 0.84 0.19 0.00 0.00 0.01 0.05 0.07 0.43 0.76 0.74 0.59 0.36 0.34 0.34 0.23 0.26 0.23 0.16 0.15 0.23 0.69 1.43 1.60 0.82 0.38 0.54 0.64 0.61 0.83 0.76 0.81 0.60 0.50 0.56 0.76 0.52 0.31 0.37 0.44 0.93 0.72 0.41 0.77 0.64 0.19 0.10 0.05 0.05 0.06 0.10 0.05 0.07 0.06 0.12 0.09 0.09 0.08 0.67 0.96 0.29 0.18 0.11 0.51 0.90 0.81 0.37 0.11 0.34 0.73 0.55 0.28 0.10 0.05 0.07 0.05 0.11 0.26 0.40
1.02 0.98 0.76 0.83 0.63 0.68 0.49 0.16 0.10 0.35 0.36 0.93 1.08 1.03 0.40 0.30 0.37 0.45 0.29 0.20 0.18 0.24 0.23 0.34 0.36 0.50 0.98 1.17 1.33 0.35 0.17 0.23 0.44 0.34 0.64 0.75 0.88 0.78 0.49 0.53 0.38 0.37 0.61 0.66 0.54 0.67 1.69 1.18 0.96 0.76 0.62 0.12 0.16 0.16 0.08 0.04 0.02 0.02 0.04 0.06 0.04 0.08 0.11 0.25 0.20 0.30 0.20 0.68 0.38 0.67 0.63 0.18 0.27 0.42 0.82 0.85 0.26 0.08 0.05 0.10 0.17 0.57 0.33 0.44 0.29
0.41 0.40 0.40 0.38 0.21 0.32 0.12 0.08 0.08 0.08 0.32 0.55 0.63 0.24 0.02 0.03 0.08 0.10 0.13 0.10 0.09 0.07 0.04 0.16 0.28 0.35 0.48 0.20 0.20 0.20 0.25 0.57 0.51 0.34 0.23 0.43 0.49 0.66 0.61 0.71 0.58 0.79 0.81 1.36 1.70 2.70 1.65 0.77 0.59 0.41 0.11 0.22 0.26 0.06 0.05 0.05 0.10 0.09 0.11 0.06 0.10 0.24 0.21 0.14 0.13 0.09 0.22 0.41 0.57 1.00 1.02 0.98 0.76 0.70 0.36 0.29 0.12 0.15 0.14 0.19 0.28 0.45 0.56 0.54 0.33
0.57 0.53 0.47 0.31 0.18 0.21 0.14 0.11 0.09 0.08 0.09 0.03 0.12 0.15 0.08 0.04 0.05 0.06 0.09 0.10 0.20 0.49 0.76 0.84 0.78 0.75 0.73 0.84 0.66 0.59 0.45 0.83 0.58 0.22 0.37 0.55 0.37 0.46 0.73 0.74 1.53 1.10 2.23 3.77 2.28 1.18 0.67 0.55 0.30 0.35 0.40 0.50 0.29 0.08 0.10 0.13 0.12 0.16 0.20 0.12 0.15 0.16 0.11 0.12 0.13 0.24 0.38 0.38 0.90 1.22 1.13 0.78 0.58 0.44 0.53 0.55 0.29 0.26 0.48 0.31 0.31 0.26 0.40 0.39 0.37
1.31 1.21 1.36 1.36 0.97 0.91 1.13 1.06 1.00 0.62 1.01 1.28 1.13 1.22 1.07 0.88 0.44 0.34 0.67 0.75 0.46 0.35 0.39 0.57 0.46 0.64 0.57 0.59 0.77 1.34 1.18 1.39 1.58 1.38 1.57 1.22 1.02 0.57 0.24 0.84 2.05 2.14 2.40 2.24 1.46 0.79 0.61 0.46 0.37 0.53 0.54 0.48 0.42 0.21 0.20 0.60 0.45 0.54 0.26 0.14 0.19 0.12 0.09 0.24 0.45 0.86 0.64 0.33 1.04 0.94 0.62 0.38 0.56 0.87 1.32 1.35 1.15 1.01 0.77 0.41 0.54 0.49 0.33 0.47 0.49
0.68 0.73 1.07 1.09 1.52 1.44 1.10 1.12 1.37 1.88 1.74 1.41 1.54 1.38 0.73 0.52 0.42 0.58 1.02 0.85 0.99 0.95 0.79 0.90 0.97 1.13 1.42 0.85 0.80 1.05 0.91 0.59 0.47 0.24 0.23 0.10 0.09 0.12 0.27 1.11 1.93 2.28 2.44 2.30 0.92 0.83 1.14 1.15 1.21 0.73 0.75 0.57 0.76 0.86 0.59 0.41 0.29 0.32 0.16 0.21 0.13 0.25 0.30 0.39 1.21 0.74 0.26 0.50 0.35 0.33 0.54 0.79 1.36 1.53 1.51 1.02 0.81 0.64 0.51 0.28 0.27 0.34 0.29 0.54 0.54
0.93 0.99 1.21 0.93 1.28 1.93 2.30 2.23 2.02 1.56 1.06 1.77 1.59 1.04 1.18 1.20 0.80 0.52 0.47 0.72 0.95 0.74 0.60 1.01 0.95 1.15 1.37 1.00 0.66 1.24 0.87 0.65 0.69 1.13 2.12 2.18 2.17 2.01 1.71 1.80 2.57 4.03 4.02 3.68 3.25 2.94 2.69 2.23 2.12 1.52 1.43 1.18 1.38 1.60 0.95 0.43 0.13 0.15 0.16 0.32 0.12 0.19 0.22 1.05 0.99 0.65 0.35 0.34 0.34 0.59 1.00 1.13 1.35 1.47 1.31 1.06 1.00 0.82 0.70 0.54 0.32 0.68 0.56 0.33 0.45
1.08 1.05 0.81 0.98 1.62 1.61 1.37 1.53 1.86 2.96 3.12 2.28 1.70 1.74 1.45 1.22 2.05 2.13 0.85 0.51 0.92 1.30 1.31 0.76 0.72 0.38 0.52 0.65 0.97 1.18 0.78 0.41 0.24 0.17 0.26 0.31 0.47 0.53 0.97 1.60 1.78 1.44 2.19 2.38 2.82 2.69 2.07 1.99 1.78 1.69 1.43 0.65 0.40 0.27 0.30 0.67 0.81 0.69 0.41 0.43 0.38 0.46 0.66 0.66 0.88 1.28 0.98 1.06 0.92 1.04 1.23 1.12 1.20 0.91 0.80 0.78 0.93 0.91 0.66 0.67 0.74 0.64 0.66 0.50 0.45
0.98 1.08 1.31 1.29 1.37 1.56 1.45 1.99 2.17 2.26 2.65 2.08 1.85 2.74 2.81 2.35 1.75 1.50 1.59 1.62 2.27 1.76 1.65 1.52 1.61 1.54 1.56 1.45 1.28 1.15 1.55 1.71 1.25 0.56 1.16 1.36 1.08 1.43 2.51 3.36 3.35 3.50 2.42 1.59 1.38 1.06 0.51 0.46 0.39 0.47 0.45 0.78 0.81 1.06 1.21 1.26 0.87 0.76 0.54 0.66 0.70 0.58 0.95 1.22 1.54 1.57 0.68 0.70 0.80 0.87 0.94 0.95 0.75 0.86 0.98 0.90 1.06 0.96 0.87 0.64 0.65 0.82 1.05 0.90 0.84
0.59 0.75 1.05 1.40 1.45 1.29 1.69 2.00 1.79 1.93 1.63 1.96 2.18 3.04 2.94 2.92 2.61 2.03 2.05 1.67 1.87 1.55 1.18 1.10 1.17 1.40 1.27 1.28 0.72 0.75 0.87 1.23 2.14 1.98 2.04 1.88 1.60 2.97 2.62 0.90 0.88 1.36 0.88 0.91 0.80 0.72 0.41 0.36 0.39 0.49 0.54 1.29 1.54 1.31 1.19 1.47 1.39 1.26 1.10 1.27 1.01 1.61 3.13 1.41 1.78 1.58 1.06 0.85 0.75 0.88 1.05 0.91 1.09 1.33 1.21 1.43 1.51 1.27 0.81 0.90 0.81 0.87 0.94 0.71 0.69
0.73 0.82 0.76 0.39 0.79 0.89 0.92 1.51 2.10 1.37 1.72 1.41 1.51 1.60 1.37 1.20 1.06 1.74 1.70 1.60 1.85 2.06 1.30 1.09 1.59 1.91 1.33 1.16 1.40 1.34 0.84 0.84 2.24 3.91 3.20 2.30 1.82 1.98 1.97 1.73 1.12 0.64 0.53 0.57 0.40 0.26 0.32 0.43 0.35 0.59 0.64 1.50 1.42 1.22 1.14 1.17 1.33 1.62 1.76 1.98 3.27 5.73 2.26 1.61 1.90 2.36 1.39 1.14 1.03 1.43 1.35 1.34 1.22 1.49 1.92 2.39 1.44 1.10 1.02 1.27 1.40 1.29 1.23 0.97 1.05
0.60 0.76 0.90 0.89 1.09 1.10 1.00 1.38 1.55 2.04 1.96 1.99 1.76 1.77 1.28 1.07 1.20 1.31 1.20 1.23 1.83 2.43 2.80 2.42 1.92 1.59 1.58 1.31 1.00 2.00 1.98 1.96 1.50 0.82 0.90 1.08 1.01 1.01 1.23 1.38 1.27 1.16 1.08 0.98 0.94 1.01 1.25 1.37 1.07 1.36 1.40 1.64 1.66 2.11 1.60 1.56 1.61 2.32 2.43 2.69 4.43 4.31 1.94 1.52 1.32 1.95 1.28 1.12 1.45 1.67 1.17 1.03 0.98 1.36 1.84 1.92 1.46 1.43 1.59 1.54 1.37 1.32 1.22 1.21 1.30
0.87 1.44 1.69 0.86 0.89 1.55 1.46 1.67 1.20 1.96 2.22 1.10 0.74 0.61 0.75 1.18 1.50 1.84 2.20 2.39 1.92 1.70 1.55 1.75 2.57 3.00 2.62 2.52 2.45 1.90 1.54 2.24 2.19 2.58 1.86 0.83 0.65 0.92 0.82 0.79 1.18 1.05 2.15 1.18 1.47 1.48 1.11 1.17 1.55 1.50 1.40 2.48 2.02 1.83 1.87 1.70 1.45 1.50 2.21 2.67 5.11 3.06 1.47 1.91 1.96 2.33 2.30 1.34 1.07 0.85 0.65 0.67 0.99 1.94 2.59 2.83 2.65 1.89 1.43 1.52 1.59 1.43 1.47 1.34 1.77
1.61 1.70 0.95 0.61 0.66 0.96 1.32 1.59 1.13 0.48 0.43 0.34 0.24 0.19 0.27 0.24 0.37 0.41 1.21 1.78 1.87 1.92 1.92 1.93 1.44 1.36 1.44 1.73 1.98 2.29 3.24 2.97 2.48 1.64 1.89 2.39 1.54 1.15 1.03 1.16 0.97 2.71 1.51 1.27 1.25 1.63 1.35 1.13 1.18 1.28 1.32 2.44 3.28 2.85 2.18 1.65 1.58 1.68 2.45 3.58 4.93 2.69 1.82 1.73 1.23 0.94 0.85 0.91 1.23 1.35 1.42 1.46 2.08 2.53 1.99 2.22 2.79 2.69 2.49 2.20 1.85 1.82 2.69 3.51 3.75
2.61 2.02 1.53 1.10 1.08 1.26 1.64 1.25 0.59 0.42 0.46 0.55 0.69 0.41 0.26 0.40 0.57 0.32 0.26 0.32 0.36 0.39 0.68 0.71 0.79 0.94 1.00 1.13 1.30 1.57 3.89 2.33 2.63 2.12 1.44 1.56 2.06 2.09 1.92 1.24 1.05 1.10 1.59 1.90 1.58 1.29 1.15 1.54 1.43 1.17 1.23 2.45 3.15 3.10 2.18 1.15 1.12 1.56 1.92 3.06 4.13 2.63 1.78 1.26 1.36 2.02 2.03 1.57 1.09 1.31 1.66 1.90 1.96 2.79 3.92 2.68 2.34 2.44 2.41 3.11 3.51 3.61 3.12 3.01 2.81
1.66 2.38 2.49 2.59 2.74 2.89 1.80 2.21 1.81 2.31 1.16 1.17 1.18 0.63 0.60 1.53 1.65 2.03 1.59 1.36 1.09 0.49 0.33 0.39 0.52 0.66 0.69 0.66 0.66 0.77 0.98 1.19 1.44 1.59 1.63 1.49 1.76 2.12 2.46 2.11 1.24 1.14 1.42 1.49 1.23 1.21 1.00 0.99 1.28 1.21 1.32 1.28 1.71 3.05 3.89 2.78 1.69 1.44 2.04 4.06 3.09 1.64 1.87 1.86 1.71 1.35 1.74 2.32 2.47 2.44 2.24 2.08 2.19 2.70 3.26 4.22 3.53 2.43 2.86 3.50 3.13 2.69 3.18 3.10 3.06
0.61 1.77 2.31 1.75 1.65 2.03 2.75 3.21 3.14 2.63 1.47 1.50 1.34 1.99 2.50 1.89 1.18 1.12 1.60 1.44 1.00 1.10 0.80 0.41 0.67 0.29 0.38 0.38 0.39 0.44 0.57 0.75 0.93 1.17 1.33 1.22 1.31 1.43 1.55 2.07 1.98 1.71 1.79 2.35 2.24 2.29 2.40 1.78 1.23 1.68 1.89 1.69 1.80 2.71 2.95 2.96 4.34 4.01 2.47 2.19 2.43 2.44 1.71 1.94 2.42 2.14 2.36 2.27 1.81 2.51 3.06 3.50 3.35 2.94 2.61 2.57 2.70 3.70 2.79 2.38 2.26 2.24 1.65 1.76 1.95
1.33 1.32 1.72 1.69 1.51 1.46 2.07 2.12 1.16 1.65 1.77 1.32 1.28 1.23 1.92 2.55 2.12 1.07 0.67 0.30 0.19 0.12 0.11 0.18 0.17 0.38 0.12 0.15 0.21 0.27 0.61 1.30 1.73 1.60 1.78 1.04 1.11 1.11 1.17 1.32 1.32 1.13 1.04 1.01 1.06 1.10 1.33 1.93 2.06 1.77 1.84 2.11 2.30 2.54 3.72 2.97 2.60 3.16 3.62 3.19 2.76 3.36 3.62 3.29 2.73 2.18 2.66 3.17 3.24 2.86 2.84 3.56 2.84 2.35 1.92 1.65 1.82 2.10 2.01 1.63 1.99 1.55 1.42 1.46 1.17
0.80 1.09 1.46 1.39 1.63 1.56 1.82 2.56 2.48 2.56 2.31 2.60 2.92 2.67 2.73 2.63 2.32 2.31 1.93 2.17 1.14 0.48 0.35 0.32 0.38 0.45 0.48 0.26 0.22 0.26 0.48 1.44 1.46 0.72 0.67 0.61 0.63 0.76 0.87 0.86 0.92 1.12 1.41 1.66 1.45 1.09 1.30 1.45 1.30 1.20 1.01 1.32 1.39 1.93 2.60 3.46 2.16 2.70 2.76 2.72 2.89 3.03 2.98 2.50 2.67 3.29 3.20 3.14 4.09 3.14 2.08 1.22 1.21 1.35 1.30 1.32 1.37 1.54 1.72 1.67 1.42 1.48 1.74 1.67 1.37
0.90 0.83 0.60 0.57 0.70 0.69 0.95 1.52 2.07 1.43 1.88 2.57 2.16 1.34 1.08 1.45 0.95 1.45 1.78 1.73 1.39 0.91 0.72 1.00 0.93 1.08 1.15 1.01 0.90 0.84 1.06 1.33 1.64 1.14 0.48 0.53 0.54 0.73 0.88 0.70 0.64 0.59 0.63 0.75 0.78 0.92 1.30 1.85 1.48 1.41 1.29 1.62 1.60 1.86 1.84 2.76 3.73 2.60 2.31 1.97 1.82 1.65 1.63 1.33 1.26 1.44 1.86 2.02 2.40 2.72 2.30 1.66 1.61 1.47 1.48 1.62 1.73 1.69 1.60 1.97 1.75 1.95 1.72 1.56 1.41
0.87 0.63 0.66 0.83 0.88 0.99 0.90 1.17 1.50 1.33 1.33 1.48 2.01 2.95 3.27 2.45 2.57 2.43 2.28 2.01 1.68 1.90 2.21 2.48 2.52 2.52 2.04 2.19 1.71 1.71 1.76 1.52 1.93 2.35 1.35 1.27 1.15 1.43 1.35 1.12 0.70 0.55 0.56 0.66 0.88 0.90 0.95 1.01 1.48 1.76 1.44 1.08 1.50 1.36 1.13 1.22 2.15 2.48 2.26 1.49 1.57 1.59 1.77 2.25 2.34 2.62 2.35 1.89 1.25 1.27 1.30 1.58 1.44 1.21 1.24 1.36 1.48 1.33 1.52 1.48 1.25 1.41 1.59 1.53 1.47
0.75 0.82 0.66 0.61 0.79 1.06 1.29 1.32 1.83 1.51 1.45 1.43 1.25 1.41 1.48 1.55 1.29 1.04 1.22 1.85 1.94 1.77 1.62 2.13 3.00 2.81 2.91 2.52 2.18 1.94 1.73 1.40 1.90 2.34 2.45 1.45 1.70 1.63 1.48 1.13 0.71 0.79 1.09 1.08 1.20 1.23 1.62 2.07 2.15 1.58 0.98 0.99 0.81 0.94 1.79 0.98 0.78 0.98 1.70 1.49 1.00 0.71 0.64 0.63 0.69 0.77 0.93 1.09 0.97 0.81 0.82 0.99 0.88 1.42 1.33 1.27 1.36 1.24 1.69 1.35 1.58 1.56 0.98 1.38 1.18
0.82 1.08 1.02 1.37 1.79 1.06 0.86 0.72 0.74 1.22 1.85 1.95 1.84 1.75 1.74 1.95 2.23 2.03 1.67 1.32 1.42 2.30 1.88 1.87 1.70 1.31 1.19 1.29 1.36 1.29 1.31 1.25 1.32 1.86 2.82 2.59 1.75 1.12 1.00 1.26 1.09 1.20 1.52 1.36 1.58 1.22 1.27 1.04 1.19 1.64 1.64 1.06 1.01 0.85 0.70 0.90 0.60 0.51 0.67 0.94 1.20 1.00 0.64 0.54 0.55 0.60 0.86 0.69 0.77 0.69 0.58 0.66 0.59 0.71 0.83 0.73 0.70 0.80 0.82 0.60 0.60 0.70 1.06 0.94 0.76
0.38 0.35 0.41 0.51 0.65 0.81 0.65 0.76 0.91 0.99 0.95 0.93 1.15 1.48 1.47 1.46 2.35 3.06 2.18 2.09 1.57 1.22 1.28 1.13 1.01 0.99 0.86 0.91 1.06 1.08 1.07 1.02 1.25 0.96 1.57 2.18 2.09 1.44 0.97 1.02 0.97 0.68 1.05 1.36 1.33 1.42 1.39 1.31 1.12 1.22 1.01 1.11 1.08 0.75 0.80 0.93 0.93 0.77 0.60 0.67 0.60 0.43 0.36 0.30 0.26 0.20 0.36 0.47 0.62 0.62 0.55 0.58 0.60 0.56 0.64 0.55 0.49 0.45 0.42 0.45 0.60 0.53 0.67 0.51 0.58